SQS340 WAFF-WAFU

Flight info

Callsign SQS340
Flight time 0h 47m
Altitude 7000
Route RIKMU
Aircraft C208/L-SDFGR/C

Departure

Time 2026-04-21 13:46
Airport Mutiara - SIS Al-Jufrie Airport (WAFF)

Arrival

Time 2026-04-21 14:34
Airport Tanjung Api Airport (WAFU)
Time Latitude Longitude Altitude Speed Heading
2026-04-21 13:46 -0.83612 119.88674 4563 ft 118 kts 144°
2026-04-21 13:46 -0.84072 119.88981 4731 ft 118 kts 143°
2026-04-21 13:47 -0.84960 119.89591 5059 ft 117 kts 143°
2026-04-21 13:47 -0.85419 119.89891 5228 ft 117 kts 144°
2026-04-21 13:47 -0.86084 119.90329 5472 ft 116 kts 143°
2026-04-21 13:47 -0.86708 119.90822 5717 ft 114 kts 132°
2026-04-21 13:48 -0.87272 119.91375 5967 ft 113 kts 133°
2026-04-21 13:48 -0.87836 119.91920 6211 ft 112 kts 133°
2026-04-21 13:48 -0.88424 119.92750 6533 ft 110 kts 106°
2026-04-21 13:48 -0.88490 119.93253 6698 ft 107 kts 92°
2026-04-21 13:49 -0.88538 119.93992 6944 ft 106 kts 92°
2026-04-21 13:49 -0.88571 119.94726 7189 ft 105 kts 91°
2026-04-21 13:49 -0.88592 119.95445 7429 ft 104 kts 90°
2026-04-21 13:49 -0.88609 119.96163 7671 ft 103 kts 90°
2026-04-21 13:50 -0.88624 119.96895 7851 ft 108 kts 90°
2026-04-21 13:50 -0.88642 119.97664 8038 ft 113 kts 90°
2026-04-21 13:50 -0.88658 119.98455 8228 ft 117 kts 90°
2026-04-21 13:50 -0.88675 119.99277 8417 ft 120 kts 90°
2026-04-21 13:51 -0.88692 120.00120 8603 ft 123 kts 90°
2026-04-21 13:51 -0.88709 120.00979 8786 ft 124 kts 90°
2026-04-21 13:51 -0.88724 120.01837 8974 ft 127 kts 90°
2026-04-21 13:51 -0.88742 120.02762 9017 ft 140 kts 91°
2026-04-21 13:52 -0.88774 120.03775 9022 ft 151 kts 91°
2026-04-21 13:52 -0.88797 120.04851 9026 ft 157 kts 90°
2026-04-21 13:52 -0.88814 120.05967 9021 ft 162 kts 91°
2026-04-21 13:52 -0.88833 120.07083 9017 ft 161 kts 90°
2026-04-21 13:53 -0.88854 120.08214 9023 ft 164 kts 91°
2026-04-21 13:53 -0.88880 120.09364 9016 ft 167 kts 91°
2026-04-21 13:53 -0.88901 120.10525 9020 ft 167 kts 91°
2026-04-21 13:53 -0.88922 120.11668 9015 ft 167 kts 91°
2026-04-21 13:54 -0.88943 120.12823 9014 ft 166 kts 91°
2026-04-21 13:54 -0.88965 120.13972 9011 ft 165 kts 91°
2026-04-21 13:54 -0.88985 120.15117 9012 ft 164 kts 91°
2026-04-21 13:54 -0.89002 120.16257 9010 ft 165 kts 91°
2026-04-21 13:55 -0.89023 120.17400 9019 ft 165 kts 91°
2026-04-21 13:55 -0.89043 120.18549 9009 ft 165 kts 91°
2026-04-21 13:55 -0.89066 120.19699 9008 ft 165 kts 90°
2026-04-21 13:55 -0.89084 120.20837 9005 ft 166 kts 91°
2026-04-21 13:56 -0.89095 120.21991 9015 ft 166 kts 89°
2026-04-21 13:56 -0.89097 120.23143 9015 ft 166 kts 90°
2026-04-21 13:56 -0.89119 120.24293 9009 ft 166 kts 90°
2026-04-21 13:56 -0.89142 120.25442 9017 ft 165 kts 90°
2026-04-21 13:57 -0.89166 120.26593 9009 ft 165 kts 90°
2026-04-21 13:57 -0.89188 120.27737 9008 ft 165 kts 90°
2026-04-21 13:57 -0.89209 120.28885 9010 ft 165 kts 90°
2026-04-21 13:57 -0.89226 120.30029 9016 ft 165 kts 90°
2026-04-21 13:58 -0.89231 120.31178 9021 ft 165 kts 88°
2026-04-21 13:58 -0.89207 120.32312 9010 ft 166 kts 88°
2026-04-21 13:58 -0.89189 120.33463 9017 ft 166 kts 89°
2026-04-21 13:58 -0.89173 120.34613 9018 ft 166 kts 88°
2026-04-21 13:59 -0.89158 120.35765 9011 ft 166 kts 89°
2026-04-21 13:59 -0.89143 120.36918 9011 ft 166 kts 89°
2026-04-21 13:59 -0.89128 120.38071 9012 ft 166 kts 89°
2026-04-21 13:59 -0.89113 120.39224 9012 ft 166 kts 89°
2026-04-21 14:00 -0.89098 120.40376 9019 ft 166 kts 88°
2026-04-21 14:00 -0.89083 120.41527 9015 ft 166 kts 89°
2026-04-21 14:00 -0.89068 120.42663 9017 ft 166 kts 88°
2026-04-21 14:00 -0.89053 120.43815 9011 ft 166 kts 89°
2026-04-21 14:01 -0.89038 120.44968 9011 ft 166 kts 89°
2026-04-21 14:01 -0.89023 120.46121 9011 ft 166 kts 89°
2026-04-21 14:01 -0.89008 120.47270 9011 ft 166 kts 89°
2026-04-21 14:01 -0.88993 120.48424 9011 ft 166 kts 88°
2026-04-21 14:02 -0.88977 120.49578 9008 ft 166 kts 88°
2026-04-21 14:02 -0.88961 120.50733 9010 ft 166 kts 88°
2026-04-21 14:02 -0.88946 120.51884 9010 ft 166 kts 89°
2026-04-21 14:03 -0.88916 120.54174 9009 ft 166 kts 88°
2026-04-21 14:03 -0.88901 120.55325 9009 ft 166 kts 88°
2026-04-21 14:03 -0.88886 120.56475 9014 ft 166 kts 89°
2026-04-21 14:03 -0.88871 120.57628 9010 ft 166 kts 89°
2026-04-21 14:04 -0.88857 120.58777 9014 ft 165 kts 89°
2026-04-21 14:04 -0.88843 120.59922 9017 ft 165 kts 88°
2026-04-21 14:04 -0.88826 120.61055 9015 ft 165 kts 88°
2026-04-21 14:04 -0.88813 120.62205 9016 ft 166 kts 89°
2026-04-21 14:05 -0.88798 120.63356 9016 ft 165 kts 88°
2026-04-21 14:05 -0.88782 120.64504 9026 ft 165 kts 89°
2026-04-21 14:05 -0.88770 120.65650 9025 ft 165 kts 88°
2026-04-21 14:05 -0.88754 120.66796 9020 ft 165 kts 88°
2026-04-21 14:06 -0.88737 120.67942 9018 ft 165 kts 88°
2026-04-21 14:06 -0.88721 120.69092 9016 ft 166 kts 88°
2026-04-21 14:06 -0.88707 120.70245 9017 ft 166 kts 88°
2026-04-21 14:06 -0.88692 120.71381 9013 ft 166 kts 88°
2026-04-21 14:07 -0.88676 120.72533 9013 ft 166 kts 88°
2026-04-21 14:07 -0.88662 120.73688 9012 ft 166 kts 89°
2026-04-21 14:07 -0.88646 120.74840 9011 ft 166 kts 88°
2026-04-21 14:07 -0.88631 120.75998 9012 ft 166 kts 89°
2026-04-21 14:08 -0.88616 120.77151 9012 ft 166 kts 88°
2026-04-21 14:08 -0.88601 120.78304 9013 ft 166 kts 88°
2026-04-21 14:08 -0.88587 120.79459 9019 ft 166 kts 88°
2026-04-21 14:08 -0.88572 120.80597 9015 ft 166 kts 88°
2026-04-21 14:09 -0.88556 120.81750 9015 ft 166 kts 88°
2026-04-21 14:09 -0.88540 120.82907 9014 ft 166 kts 88°
2026-04-21 14:09 -0.88526 120.84061 9013 ft 167 kts 89°
2026-04-21 14:09 -0.88510 120.85218 9020 ft 166 kts 88°
2026-04-21 14:10 -0.88494 120.86374 9019 ft 166 kts 88°
2026-04-21 14:10 -0.88478 120.87530 9019 ft 166 kts 88°
2026-04-21 14:10 -0.88463 120.88686 9020 ft 166 kts 88°
2026-04-21 14:10 -0.88449 120.89824 9021 ft 166 kts 88°
2026-04-21 14:11 -0.88434 120.90977 9020 ft 166 kts 88°
2026-04-21 14:11 -0.88418 120.92128 9020 ft 166 kts 88°
2026-04-21 14:11 -0.88403 120.93278 9019 ft 166 kts 88°
2026-04-21 14:11 -0.88388 120.94432 9020 ft 166 kts 88°
2026-04-21 14:12 -0.88372 120.95582 9024 ft 166 kts 88°
2026-04-21 14:12 -0.88358 120.96734 9024 ft 166 kts 88°
2026-04-21 14:12 -0.88343 120.97887 9020 ft 166 kts 88°
2026-04-21 14:12 -0.88328 120.99040 9020 ft 166 kts 88°
2026-04-21 14:13 -0.88312 121.00173 9020 ft 165 kts 88°
2026-04-21 14:13 -0.88297 121.01323 9020 ft 166 kts 88°
2026-04-21 14:13 -0.88282 121.02474 9022 ft 165 kts 88°
2026-04-21 14:13 -0.88268 121.03625 9035 ft 165 kts 88°
2026-04-21 14:14 -0.88252 121.04774 9032 ft 166 kts 88°
2026-04-21 14:14 -0.88236 121.05925 9030 ft 166 kts 88°
2026-04-21 14:14 -0.88220 121.07080 9021 ft 166 kts 88°
2026-04-21 14:14 -0.88205 121.08234 9020 ft 166 kts 88°
2026-04-21 14:15 -0.88190 121.09373 9021 ft 166 kts 88°
2026-04-21 14:15 -0.88177 121.10528 9022 ft 166 kts 88°
2026-04-21 14:15 -0.88162 121.11681 9027 ft 165 kts 88°
2026-04-21 14:15 -0.88146 121.12829 9028 ft 165 kts 88°
2026-04-21 14:16 -0.88130 121.13979 9032 ft 166 kts 88°
2026-04-21 14:16 -0.88114 121.15131 9023 ft 166 kts 88°
2026-04-21 14:16 -0.88100 121.16286 9023 ft 166 kts 88°
2026-04-21 14:16 -0.88085 121.17436 9034 ft 166 kts 88°
2026-04-21 14:17 -0.88070 121.18572 9031 ft 166 kts 88°
2026-04-21 14:17 -0.88055 121.19724 9032 ft 166 kts 88°
2026-04-21 14:17 -0.88040 121.20877 9032 ft 166 kts 88°
2026-04-21 14:17 -0.88024 121.22031 9033 ft 166 kts 88°
2026-04-21 14:18 -0.88008 121.23183 9034 ft 165 kts 88°
2026-04-21 14:18 -0.87992 121.24329 9034 ft 165 kts 88°
2026-04-21 14:18 -0.87979 121.25480 9038 ft 165 kts 88°
2026-04-21 14:18 -0.87963 121.26630 9040 ft 166 kts 88°
2026-04-21 14:19 -0.87947 121.27783 9039 ft 166 kts 88°
2026-04-21 14:19 -0.87934 121.28919 9040 ft 166 kts 88°
2026-04-21 14:19 -0.87918 121.30072 9040 ft 166 kts 88°
2026-04-21 14:19 -0.87902 121.31225 9040 ft 166 kts 88°
2026-04-21 14:20 -0.87887 121.32378 9042 ft 166 kts 88°
2026-04-21 14:20 -0.87873 121.33530 9044 ft 165 kts 88°
2026-04-21 14:20 -0.87857 121.34679 9045 ft 166 kts 88°
2026-04-21 14:20 -0.87842 121.35831 9045 ft 166 kts 88°
2026-04-21 14:21 -0.87826 121.36983 9043 ft 166 kts 88°
2026-04-21 14:21 -0.87809 121.38124 9039 ft 166 kts 88°
2026-04-21 14:21 -0.87796 121.39276 9043 ft 166 kts 88°
2026-04-21 14:21 -0.87781 121.40427 9045 ft 166 kts 88°
2026-04-21 14:22 -0.87765 121.41577 9044 ft 166 kts 88°
2026-04-21 14:22 -0.87749 121.42729 9041 ft 166 kts 88°
2026-04-21 14:22 -0.87734 121.43881 9040 ft 166 kts 88°
2026-04-21 14:22 -0.87718 121.45031 9040 ft 166 kts 88°
2026-04-21 14:23 -0.87703 121.46183 9039 ft 166 kts 88°
2026-04-21 14:23 -0.87687 121.47338 9039 ft 166 kts 88°
2026-04-21 14:23 -0.87673 121.48493 9040 ft 166 kts 88°
2026-04-21 14:23 -0.87657 121.49633 9041 ft 166 kts 88°
2026-04-21 14:24 -0.87642 121.50789 9040 ft 166 kts 88°
2026-04-21 14:24 -0.87628 121.51930 8817 ft 156 kts 89°
2026-04-21 14:24 -0.87615 121.52970 8549 ft 146 kts 88°
2026-04-21 14:24 -0.87597 121.53978 8286 ft 144 kts 88°
2026-04-21 14:25 -0.87582 121.54972 8031 ft 142 kts 88°
2026-04-21 14:25 -0.87567 121.55960 7770 ft 142 kts 88°
2026-04-21 14:25 -0.87554 121.56945 7513 ft 141 kts 88°
2026-04-21 14:25 -0.87541 121.57907 7263 ft 141 kts 88°
2026-04-21 14:26 -0.87531 121.58883 7012 ft 140 kts 88°
2026-04-21 14:26 -0.87516 121.59849 6761 ft 139 kts 88°
2026-04-21 14:26 -0.87504 121.60808 6518 ft 138 kts 88°
2026-04-21 14:26 -0.87493 121.61760 6270 ft 136 kts 88°
2026-04-21 14:27 -0.87478 121.62703 6002 ft 137 kts 88°
2026-04-21 14:27 -0.87468 121.63665 5622 ft 137 kts 89°
2026-04-21 14:27 -0.87458 121.64605 5247 ft 134 kts 88°
2026-04-21 14:27 -0.87446 121.65526 4871 ft 131 kts 89°
2026-04-21 14:28 -0.87433 121.66418 4501 ft 130 kts 89°
2026-04-21 14:28 -0.87420 121.67317 4122 ft 128 kts 89°
2026-04-21 14:28 -0.87408 121.68201 3749 ft 127 kts 89°
2026-04-21 14:28 -0.87398 121.69068 3458 ft 124 kts 88°
2026-04-21 14:29 -0.87380 121.69944 3215 ft 127 kts 89°
2026-04-21 14:29 -0.87369 121.70832 2969 ft 128 kts 89°
2026-04-21 14:29 -0.87357 121.71715 2805 ft 123 kts 89°
2026-04-21 14:29 -0.87348 121.72528 2789 ft 112 kts 91°
2026-04-21 14:30 -0.87753 121.73117 2786 ft 111 kts 160°
2026-04-21 14:30 -0.88478 121.72922 2793 ft 114 kts 205°
2026-04-21 14:30 -0.89179 121.72572 2791 ft 112 kts 201°
2026-04-21 14:30 -0.89740 121.72030 2668 ft 125 kts 252°
2026-04-21 14:31 -0.89673 121.71147 2472 ft 134 kts 291°
2026-04-21 14:31 -0.89376 121.70280 2314 ft 129 kts 289°
2026-04-21 14:31 -0.89113 121.69426 2121 ft 128 kts 289°
2026-04-21 14:31 -0.88873 121.68565 1900 ft 129 kts 287°
2026-04-21 14:32 -0.88651 121.67764 1731 ft 114 kts 287°
2026-04-21 14:32 -0.88450 121.67007 1518 ft 111 kts 286°
2026-04-21 14:32 -0.88253 121.66298 1326 ft 98 kts 289°
2026-04-21 14:32 -0.88051 121.65682 1141 ft 90 kts 293°
2026-04-21 14:33 -0.87832 121.65095 929 ft 91 kts 295°
2026-04-21 14:33 -0.87560 121.64539 707 ft 86 kts 302°
2026-04-21 14:33 -0.87259 121.64034 500 ft 85 kts 304°
2026-04-21 14:33 -0.86948 121.63524 292 ft 87 kts 306°
2026-04-21 14:34 -0.86635 121.63009 121 ft 82 kts 304°
2026-04-21 14:34 -0.86389 121.62602 118 ft 51 kts 301°
2026-04-21 14:34 -0.86284 121.62429 115 ft 16 kts 303°
2026-04-21 14:34 -0.86295 121.62366 113 ft 9 kts 210°
2026-04-21 14:35 -0.86378 121.62319 114 ft 16 kts 211°
2026-04-21 14:35 -0.86417 121.62295 115 ft 3 kts 211°
2026-04-21 14:35 -0.86452 121.62305 115 ft 5 kts 117°
2026-04-21 14:35 -0.86483 121.62365 115 ft 14 kts 116°
2026-04-21 14:36 -0.86539 121.62400 115 ft 7 kts 210°
2026-04-21 14:36 -0.86539 121.62379 115 ft 0 kts 340°
2026-04-21 14:37 -0.86539 121.62380 115 ft 0 kts 340°